Tracking 19283 objects as of 17-Nov-2018
HD Live streaming from Space Station
objects crossing your sky now

SSA

Track SSA now!
10-day predictions
SSA is classified as:


NORAD ID: 13844
Int'l Code: 1983-008E
Perigee: 412.5 km
Apogee: 1,734.0 km
Inclination: 63.3 °
Period: 106.5 minutes
Semi major axis: 7444 km
RCS: Unknown
Launch date: February 9, 1983
Source: United States (US)
Launch site: AIR FORCE WESTERN TEST RANGE (AFWTR)
aabbcc
Your satellite tracking list
Your tracking list is empty




NASA's NSSDC Master Catalog

Two Line Element Set (TLE):
1 13844U 83008E   18308.17967145 0.00000500  00000-0  49725-4 0    08
2 13844  63.3070 344.3279 0887577  68.7177 291.2823 13.51674458    02
Source of the keplerian elements: McCants